Location: Gro�sch�nbrunn
(49.5760°N, 11.8868°E)
Time: 23:08:27
(UTC+00:00)

Cosmos 2278 Rocket - Pass Details

Date: 18 September 2020
Orbit: 841 x 845 km, 71.0° (Epoch: 31 October)

Event Time Altitude Azimuth Distance (km) Brightness Sun altitude
Exits shadow 23:03:43 21° 324° (NW) 1,803 4.3 -39.0°
Drops below altitude 10° 23:07:46 10° 10° (N) 2,471 5.3 -39.0°
Sets 23:10:51 0° 26° (NNE) 3,410 6.1 -39.0°
